TimeEDT,TemperatureF,Dew PointF,Humidity,Sea Level PressureIn,VisibilityMPH,Wind Direction,Wind SpeedMPH,Gust SpeedMPH,PrecipitationIn,Events,Conditions,WindDirDegrees,DateUTC
12:15 AM,39.2,37.4,93,29.71,10.0,NW,9.2,-,N/A,,Overcast,320,2012-10-31 04:15:00
12:35 AM,39.2,37.4,93,29.70,5.0,NW,10.4,18.4,N/A,,Overcast,320,2012-10-31 04:35:00
12:55 AM,39.2,37.4,93,29.70,5.0,NW,10.4,-,N/A,,Overcast,320,2012-10-31 04:55:00
1:15 AM,39.2,37.4,93,29.70,10.0,NW,10.4,19.6,N/A,,Overcast,320,2012-10-31 05:15:00
1:35 AM,39.2,35.6,87,29.70,10.0,NW,9.2,19.6,N/A,,Overcast,310,2012-10-31 05:35:00
1:55 AM,39.2,35.6,87,29.70,10.0,NW,10.4,18.4,N/A,,Overcast,310,2012-10-31 05:55:00
2:15 AM,39.2,35.6,87,29.69,10.0,NW,12.7,-,N/A,,Overcast,310,2012-10-31 06:15:00
2:55 AM,37.4,35.6,93,29.70,7.0,NW,10.4,-,N/A,,Overcast,320,2012-10-31 06:55:00
3:15 AM,39.2,35.6,87,29.70,7.0,NW,10.4,17.3,N/A,,Overcast,310,2012-10-31 07:15:00
3:35 AM,37.4,35.6,93,29.70,10.0,NW,11.5,17.3,N/A,,Overcast,310,2012-10-31 07:35:00
3:55 AM,37.4,35.6,93,29.70,5.0,NW,9.2,17.3,N/A,,Overcast,310,2012-10-31 07:55:00
4:15 AM,37.4,35.6,93,29.70,7.0,NW,11.5,-,N/A,,Overcast,310,2012-10-31 08:15:00
4:35 AM,37.4,35.6,93,29.70,5.0,WNW,11.5,17.3,N/A,,Overcast,300,2012-10-31 08:35:00
4:55 AM,37.4,35.6,93,29.71,5.0,WNW,11.5,16.1,N/A,,Overcast,290,2012-10-31 08:55:00
5:15 AM,37.4,35.6,93,29.71,5.0,WNW,10.4,-,N/A,,Overcast,300,2012-10-31 09:15:00
5:35 AM,37.4,35.6,93,29.71,7.0,WNW,10.4,-,N/A,,Overcast,300,2012-10-31 09:35:00
5:55 AM,37.4,35.6,93,29.72,10.0,WNW,10.4,-,N/A,,Overcast,300,2012-10-31 09:55:00
6:15 AM,37.4,33.8,87,29.72,10.0,WNW,12.7,18.4,N/A,,Overcast,290,2012-10-31 10:15:00
6:35 AM,37.4,33.8,87,29.72,10.0,WNW,11.5,18.4,N/A,,Overcast,290,2012-10-31 10:35:00
6:55 AM,37.4,33.8,87,29.72,10.0,WNW,10.4,18.4,N/A,,Overcast,300,2012-10-31 10:55:00
7:15 AM,37.4,33.8,87,29.72,10.0,WNW,12.7,-,N/A,,Overcast,300,2012-10-31 11:15:00
7:35 AM,35.6,32.0,87,29.73,10.0,WNW,10.4,-,N/A,,Overcast,300,2012-10-31 11:35:00
7:55 AM,35.6,32.0,87,29.73,10.0,WNW,11.5,19.6,N/A,,Overcast,300,2012-10-31 11:55:00
8:15 AM,35.6,32.0,87,29.73,10.0,WNW,12.7,23.0,N/A,,Overcast,290,2012-10-31 12:15:00
8:35 AM,33.8,32.0,93,29.74,10.0,WNW,12.7,-,N/A,,Overcast,300,2012-10-31 12:35:00
8:55 AM,35.6,32.0,87,29.74,10.0,WNW,10.4,17.3,N/A,,Overcast,300,2012-10-31 12:55:00
9:15 AM,35.6,32.0,87,29.75,10.0,WNW,12.7,17.3,N/A,,Overcast,290,2012-10-31 13:15:00
9:35 AM,35.6,32.0,87,29.75,10.0,WNW,13.8,20.7,N/A,,Overcast,300,2012-10-31 13:35:00
9:55 AM,35.6,32.0,87,29.76,10.0,WNW,12.7,16.1,N/A,Snow,Light Snow,300,2012-10-31 13:55:00
10:15 AM,35.6,32.0,87,29.76,10.0,WNW,10.4,20.7,N/A,,Overcast,290,2012-10-31 14:15:00
10:35 AM,35.6,32.0,87,29.76,10.0,WNW,12.7,23.0,N/A,,Overcast,300,2012-10-31 14:35:00
10:55 AM,37.4,32.0,81,29.76,10.0,WNW,13.8,18.4,N/A,,Overcast,300,2012-10-31 14:55:00
11:15 AM,37.4,32.0,81,29.76,10.0,WNW,11.5,19.6,N/A,,Overcast,300,2012-10-31 15:15:00
11:35 AM,37.4,32.0,81,29.76,10.0,WNW,11.5,17.3,N/A,,Overcast,300,2012-10-31 15:35:00
11:55 AM,39.2,32.0,75,29.77,10.0,WNW,11.5,18.4,N/A,,Overcast,290,2012-10-31 15:55:00
12:15 PM,39.2,32.0,75,29.77,10.0,WNW,13.8,19.6,N/A,,Overcast,300,2012-10-31 16:15:00
12:35 PM,39.2,32.0,75,29.77,10.0,WNW,12.7,17.3,N/A,,Overcast,300,2012-10-31 16:35:00
12:55 PM,39.2,32.0,75,29.78,10.0,WNW,11.5,19.6,N/A,,Overcast,300,2012-10-31 16:55:00
1:15 PM,39.2,32.0,75,29.77,10.0,WNW,9.2,18.4,N/A,,Overcast,300,2012-10-31 17:15:00
1:35 PM,39.2,32.0,75,29.78,10.0,WNW,13.8,19.6,N/A,,Overcast,290,2012-10-31 17:35:00
1:55 PM,41.0,32.0,70,29.78,10.0,WNW,9.2,17.3,N/A,,Overcast,300,2012-10-31 17:55:00
2:15 PM,39.2,32.0,75,29.78,10.0,WNW,11.5,19.6,N/A,,Overcast,290,2012-10-31 18:15:00
2:35 PM,41.0,32.0,70,29.78,10.0,WNW,10.4,19.6,N/A,,Overcast,300,2012-10-31 18:35:00
2:55 PM,41.0,32.0,70,29.78,10.0,NW,9.2,-,N/A,,Overcast,310,2012-10-31 18:55:00
3:15 PM,41.0,32.0,70,29.78,10.0,WNW,12.7,17.3,N/A,,Overcast,300,2012-10-31 19:15:00
3:55 PM,41.0,32.0,70,29.78,10.0,WNW,12.7,-,N/A,,Overcast,300,2012-10-31 19:55:00
4:15 PM,41.0,32.0,70,29.79,10.0,WNW,13.8,18.4,N/A,,Overcast,290,2012-10-31 20:15:00
4:35 PM,41.0,32.0,70,29.80,10.0,WNW,12.7,20.7,N/A,,Overcast,290,2012-10-31 20:35:00
4:55 PM,41.0,32.0,70,29.80,10.0,WNW,9.2,18.4,N/A,,Overcast,300,2012-10-31 20:55:00
5:15 PM,41.0,32.0,70,29.80,10.0,NW,8.1,-,N/A,,Overcast,310,2012-10-31 21:15:00
5:35 PM,41.0,32.0,70,29.80,10.0,NW,8.1,-,N/A,,Overcast,310,2012-10-31 21:35:00
5:55 PM,41.0,32.0,70,29.81,10.0,NW,8.1,17.3,N/A,,Overcast,310,2012-10-31 21:55:00
6:15 PM,41.0,30.2,65,29.82,10.0,WNW,9.2,-,N/A,,Overcast,300,2012-10-31 22:15:00
6:35 PM,41.0,32.0,70,29.82,10.0,WNW,9.2,-,N/A,,Overcast,300,2012-10-31 22:35:00
6:55 PM,41.0,32.0,70,29.82,10.0,WNW,6.9,-,N/A,,Overcast,300,2012-10-31 22:55:00
7:15 PM,41.0,32.0,70,29.82,10.0,WNW,6.9,-,N/A,,Overcast,300,2012-10-31 23:15:00
7:35 PM,41.0,32.0,70,29.83,10.0,WNW,5.8,-,N/A,,Overcast,300,2012-10-31 23:35:00
7:55 PM,41.0,32.0,70,29.83,10.0,NW,5.8,-,N/A,,Overcast,310,2012-10-31 23:55:00
8:15 PM,41.0,32.0,70,29.83,10.0,WNW,5.8,-,N/A,,Overcast,290,2012-11-01 00:15:00
8:35 PM,41.0,32.0,70,29.83,10.0,WNW,4.6,-,N/A,,Overcast,300,2012-11-01 00:35:00
8:55 PM,41.0,32.0,70,29.83,10.0,WNW,5.8,-,N/A,,Overcast,290,2012-11-01 00:55:00
9:15 PM,39.2,32.0,75,29.83,10.0,West,6.9,-,N/A,,Overcast,270,2012-11-01 01:15:00
9:35 PM,39.2,32.0,75,29.83,10.0,West,4.6,-,N/A,,Overcast,270,2012-11-01 01:35:00
9:55 PM,37.4,32.0,81,29.83,10.0,West,4.6,-,N/A,,Overcast,270,2012-11-01 01:55:00
10:15 PM,39.2,32.0,75,29.83,10.0,West,4.6,-,N/A,,Overcast,280,2012-11-01 02:15:00
10:35 PM,37.4,32.0,81,29.83,10.0,West,5.8,-,N/A,,Overcast,260,2012-11-01 02:35:00
10:55 PM,37.4,32.0,81,29.83,10.0,West,4.6,-,N/A,,Overcast,260,2012-11-01 02:55:00
11:15 PM,37.4,33.8,87,29.83,10.0,West,5.8,-,N/A,,Overcast,260,2012-11-01 03:15:00
11:35 PM,37.4,32.0,81,29.83,10.0,West,4.6,-,N/A,,Overcast,270,2012-11-01 03:35:00
11:55 PM,37.4,32.0,81,29.82,10.0,West,5.8,-,N/A,,Overcast,260,2012-11-01 03:55:00